Location: Scultetus-Sternwarte Görlitz
(51.1345°N, 14.9495°E)
Time: 08:01:20
(UTC+01:00)

ISS - Visible Passes

Search period start: 11 December 2018 00:00
Search period end: 21 December 2018 00:00
Orbit: 401 x 408 km, 51.6° (Epoch: 12 December)

Date Brightness Start Highest point End Pass type
(mag) Time Alt. Az. Time Alt. Az. Time Alt. Az.
11 Dec -3.1 16:38:03 10° W 16:41:17 56° SSW 16:44:29 10° ESE visible
11 Dec -0.9 18:15:17 10° WSW 18:17:15 15° SW 18:19:13 10° S visible
12 Dec -1.4 17:22:37 10° W 17:25:16 23° SW 17:27:55 10° SSE visible
13 Dec -2.0 16:30:12 10° W 16:33:12 34° SSW 16:36:12 10° SE visible
14 Dec -0.5 17:15:26 10° WSW 17:16:59 13° SW 17:18:31 10° SSW visible
